Regional Weather Roundup
Issued by NWS

Home | Current Version | Previous Version | Graphics & Text | Print | Product List | Glossary On
Versions: 1 2 3 4 5 6 7 8 9 10 11 12 13 14 15 16 17 18 19 20 21 22 23 24 25 26 27
000
ASUS45 KCYS 190910
RWRWY

WYOMING REGIONAL WEATHER ROUNDUP
NATIONAL WEATHER SERVICE CHEYENNE WY
300 AM MDT SAT APR 19 2014

NOTE:  "FAIR" INDICATES FEW OR NO CLOUDS BELOW 12,000 FEET
WITH NO SIGNIFICANT WEATHER AND/OR OBSTRUCTIONS TO VISIBILITY.

WYZ001-191000-
YELLOWSTONE NATIONAL PARK

CITY           SKY/WX    TMP DP  RH WIND       PRES   REMARKS
LK YELLOWSTONE   N/A     22  19  89 CALM      30.04F
W YELLOWSTONE  NOT AVBL

$$
WYZ002>013-054>058-071-098>099-191000-
NORTHERN WYOMING

CITY           SKY/WX    TMP DP  RH WIND       PRES   REMARKS
JACKSON        MOCLDY    36  25  64 SW3       30.04S
CODY           CLEAR     36  27  69 N3        29.91R
GREYBULL       PTCLDY    38  28  67 SE5       29.92R WCI  34
WORLAND        PTCLDY    36  28  73 S10       29.92S WCI  28
SHERIDAN         N/A     41  30  65 SW3         N/A
BUFFALO        CLEAR     37  27  67 S6        29.95S WCI  32
GILLETTE       CLEAR     28  24  85 S3        29.93S
HULETT         FAIR      41  18  38 W3        29.93
NEWCASTLE      FAIR      43  23  45 N10       29.93

$$
WYZ014>020-022>026-101>103-191000-
CENTRAL WYOMING

CITY           SKY/WX    TMP DP  RH WIND       PRES   REMARKS
BIG PINEY      CLEAR     28  13  53 CALM      30.06S
PINEDALE       PTSUNNY   25  21  86 W3        30.06S
DUBOIS         FAIR      32  14  47 NW16      29.98S WCI  21
LANDER         PTCLDY    37  17  44 SE10      29.93S WCI  30
RIVERTON       PTCLDY    39  13  34 S6        29.95R WCI  35
CASPER         MOCLDY    33  28  81 CALM      29.99R
DOUGLAS        MOCLDY    40  36  86 W10       29.98R WCI  33

$$
WYZ021-027>030-104>119-191000-
SOUTHERN WYOMING

CITY           SKY/WX    TMP DP  RH WIND       PRES   REMARKS
EVANSTON       MOCLDY    39  31  72 NE5       30.06F
KEMMERER       MOSUNNY   32  21  64 N3        30.06F
FORT BRIDGER   FAIR      42  31  64 CALM      30.09S
ROCK SPRINGS   CLOUDY    42  30  62 W12       30.04F
DIXON          PTSUNNY   38  32  80 E3        30.07S
RAWLINS        PTCLDY    42  30  62 W8        30.03R
SARATOGA       FAIR      34  30  86 S8        30.05R WCI  27
LARAMIE        PTCLDY    36  28  73 W8        30.03R WCI  30
CHEYENNE       CLOUDY    48  31  51 W9        29.97R
TORRINGTON     CLOUDY    55  36  48 NW12      29.88R
PINE BLUFFS    FAIR      45  34  65 CALM      29.95R

$$



USA.gov is the U.S. government's official web portal to all federal, state and local government web resources and services.